• In Germany
  • List of Countries
  • For 7 days
  • Water Temperature
  • Satellite Maps
  • Weather Map
  • Weather Widgets
  • user-avatar
    Login

    Hourly Weather Nakhidka

    Today, 24 September, Monday

    Time Temperature Precipitation Wind Pressure Humidity
    00:00 +14°C° 0 mm 1 mps 761 mmHg 84%
    01:00 +14°C° 0 mm 1 mps 761 mmHg 84%
    02:00 +14°C° 0 mm 1 mps 761 mmHg 84%
    03:00 +14°C° 0 mm 2 mps 761 mmHg 85%
    04:00 +14°C° 0 mm 2 mps 760 mmHg 85%
    05:00 +12°C° 0 mm 3 mps 760 mmHg 86%
    06:00 +14°C° 0 mm 3 mps 760 mmHg 80%
    07:00 +17°C° 0 mm 4 mps 760 mmHg 74%
    08:00 +18°C° 0 mm 4 mps 759 mmHg 67%
    09:00 +20°C° 0 mm 4 mps 759 mmHg 61%
    10:00 +23°C° 0 mm 4 mps 759 mmHg 54%
    11:00 +26°C° 0 mm 4 mps 758 mmHg 48%
    12:00 +27°C° 0 mm 4 mps 758 mmHg 47%
    13:00 +27°C° 0 mm 4 mps 757 mmHg 47%
    14:00 +28°C° 0 mm 5 mps 757 mmHg 46%
    15:00 +27°C° 0 mm 5 mps 756 mmHg 51%
    16:00 +26°C° 0 mm 5 mps 755 mmHg 55%
    17:00 +26°C° 0 mm 5 mps 755 mmHg 60%
    18:00 +25°C° 0 mm 5 mps 755 mmHg 65%
    19:00 +22°C° 0 mm 5 mps 755 mmHg 70%
    20:00 +21°C° 0 mm 5 mps 755 mmHg 76%
    21:00 +20°C° 0.1 mm 5 mps 755 mmHg 76%
    22:00 +19°C° 0.1 mm 6 mps 756 mmHg 77%
    23:00 +17°C° 0.1 mm 7 mps 756 mmHg 77%

    Tomorrow, 25 September, Tuesday

    Time Temperature Precipitation Wind Pressure Humidity
    00:00 +16°C° 0.4 mm 7 mps 757 mmHg 77%
    01:00 +14°C° 0.4 mm 7 mps 757 mmHg 77%
    02:00 +12°C° 0.4 mm 7 mps 757 mmHg 77%
    03:00 +13°C° 0.8 mm 6 mps 758 mmHg 78%
    04:00 +11°C° 0.8 mm 6 mps 758 mmHg 78%
    05:00 +11°C° 0.8 mm 6 mps 758 mmHg 79%
    06:00 +11°C° 0.2 mm 6 mps 759 mmHg 76%
    07:00 +11°C° 0.2 mm 6 mps 760 mmHg 73%
    08:00 +13°C° 0.2 mm 6 mps 760 mmHg 69%
    09:00 +14°C° 0 mm 7 mps 761 mmHg 62%
    10:00 +15°C° 0 mm 7 mps 761 mmHg 55%
    11:00 +15°C° 0 mm 7 mps 762 mmHg 48%
    12:00 +16°C° 0 mm 7 mps 762 mmHg 46%
    13:00 +16°C° 0 mm 8 mps 762 mmHg 44%
    14:00 +17°C° 0 mm 8 mps 762 mmHg 42%
    15:00 +16°C° 0 mm 8 mps 762 mmHg 44%
    16:00 +15°C° 0 mm 7 mps 762 mmHg 46%
    17:00 +15°C° 0 mm 7 mps 763 mmHg 48%
    18:00 +14°C° 0 mm 7 mps 763 mmHg 52%
    19:00 +13°C° 0 mm 6 mps 764 mmHg 55%
    20:00 +11°C° 0 mm 6 mps 765 mmHg 58%
    21:00 +10°C° 0 mm 6 mps 765 mmHg 60%
    22:00 +10°C° 0 mm 5 mps 766 mmHg 62%
    23:00 +9°C° 0 mm 5 mps 766 mmHg 64%

    Day after tomorrow, 26 September, Wednesday

    Time Temperature Precipitation Wind Pressure Humidity
    00:00 +9°C° 0 mm 5 mps 766 mmHg 65%
    01:00 +8°C° 0 mm 5 mps 766 mmHg 65%
    02:00 +8°C° 0 mm 5 mps 767 mmHg 66%
    03:00 +7°C° 0 mm 4 mps 767 mmHg 67%
    04:00 +7°C° 0 mm 4 mps 767 mmHg 68%
    05:00 +7°C° 0 mm 4 mps 767 mmHg 69%
    06:00 +8°C° 0 mm 4 mps 768 mmHg 65%
    07:00 +10°C° 0 mm 4 mps 768 mmHg 61%
    08:00 +10°C° 0 mm 5 mps 769 mmHg 57%
    09:00 +12°C° 0 mm 5 mps 769 mmHg 52%
    10:00 +13°C° 0 mm 5 mps 769 mmHg 48%
    11:00 +14°C° 0 mm 5 mps 769 mmHg 43%
    12:00 +14°C° 0 mm 5 mps 769 mmHg 41%
    13:00 +14°C° 0 mm 5 mps 769 mmHg 39%
    14:00 +15°C° 0 mm 5 mps 768 mmHg 37%
    15:00 +14°C° 0 mm 5 mps 768 mmHg 39%
    16:00 +14°C° 0 mm 4 mps 768 mmHg 40%
    17:00 +13°C° 0 mm 4 mps 768 mmHg 42%
    18:00 +12°C° 0 mm 4 mps 769 mmHg 44%
    19:00 +12°C° 0 mm 4 mps 769 mmHg 46%
    20:00 +11°C° 0 mm 3 mps 770 mmHg 48%
    21:00 +11°C° 0 mm 3 mps 770 mmHg 49%
    22:00 +10°C° 0 mm 3 mps 770 mmHg 51%
    23:00 +10°C° 0 mm 3 mps 770 mmHg 52%

    27 September, Thursday

    Time Temperature Precipitation Wind Pressure Humidity
    00:00 +10°C° 0 mm 4 mps 770 mmHg 55%
    01:00 +8°C° 0 mm 4 mps 770 mmHg 58%
    02:00 +8°C° 0 mm 4 mps 770 mmHg 61%
    03:00 +8°C° 0 mm 4 mps 770 mmHg 64%
    04:00 +8°C° 0 mm 3 mps 769 mmHg 67%
    05:00 +8°C° 0 mm 3 mps 769 mmHg 70%
    06:00 +9°C° 0 mm 3 mps 769 mmHg 65%
    07:00 +10°C° 0 mm 3 mps 769 mmHg 60%
    08:00 +11°C° 0 mm 3 mps 769 mmHg 55%
    09:00 +12°C° 0 mm 3 mps 769 mmHg 50%
    10:00 +13°C° 0 mm 3 mps 769 mmHg 45%
    11:00 +15°C° 0 mm 2 mps 769 mmHg 40%
    12:00 +15°C° 0 mm 2 mps 769 mmHg 38%
    13:00 +16°C° 0 mm 3 mps 768 mmHg 36%
    14:00 +16°C° 0 mm 3 mps 768 mmHg 33%
    15:00 +16°C° 0 mm 3 mps 768 mmHg 35%
    16:00 +15°C° 0 mm 2 mps 767 mmHg 37%
    17:00 +15°C° 0 mm 2 mps 767 mmHg 38%
    18:00 +14°C° 0 mm 2 mps 767 mmHg 41%
    19:00 +12°C° 0 mm 2 mps 767 mmHg 44%
    20:00 +10°C° 0 mm 2 mps 767 mmHg 46%
    21:00 +10°C° 0 mm 2 mps 767 mmHg 47%
    22:00 +11°C° 0 mm 1 mps 767 mmHg 48%
    23:00 +11°C° 0 mm 1 mps 767 mmHg 49%

    28 September, Friday

    Time Temperature Precipitation Wind Pressure Humidity
    00:00 +10°C° 0 mm 1 mps 766 mmHg 49%
    01:00 +10°C° 0 mm 1 mps 766 mmHg 49%
    02:00 +10°C° 0 mm 1 mps 766 mmHg 49%
    03:00 +10°C° 0 mm 1 mps 765 mmHg 48%
    04:00 +10°C° 0 mm 1 mps 765 mmHg 47%
    05:00 +10°C° 0 mm 1 mps 765 mmHg 46%
    06:00 +11°C° 0 mm 1 mps 765 mmHg 42%
    07:00 +13°C° 0 mm 1 mps 764 mmHg 38%
    08:00 +14°C° 0 mm 1 mps 764 mmHg 34%
    09:00 +16°C° 0 mm 1 mps 764 mmHg 32%
    10:00 +18°C° 0 mm 1 mps 764 mmHg 29%
    11:00 +20°C° 0 mm 1 mps 764 mmHg 26%
    12:00 +20°C° 0 mm 2 mps 763 mmHg 26%
    13:00 +20°C° 0 mm 2 mps 763 mmHg 26%
    14:00 +21°C° 0 mm 2 mps 763 mmHg 26%
    15:00 +20°C° 0 mm 2 mps 762 mmHg 31%
    16:00 +19°C° 0 mm 2 mps 762 mmHg 35%
    17:00 +18°C° 0 mm 2 mps 762 mmHg 40%
    18:00 +17°C° 0 mm 2 mps 762 mmHg 43%
    19:00 +16°C° 0 mm 2 mps 762 mmHg 46%
    20:00 +15°C° 0 mm 2 mps 762 mmHg 50%
    21:00 +15°C° 0 mm 1 mps 762 mmHg 49%
    22:00 +14°C° 0 mm 1 mps 762 mmHg 49%
    23:00 +14°C° 0 mm 1 mps 761 mmHg 49%

    29 September, Saturday

    Time Temperature Precipitation Wind Pressure Humidity
    00:00 +14°C° 0 mm 1 mps 761 mmHg 50%
    01:00 +14°C° 0 mm 1 mps 761 mmHg 51%
    02:00 +14°C° 0 mm 1 mps 761 mmHg 52%
    03:00 +14°C° 0 mm 1 mps 761 mmHg 54%
    04:00 +13°C° 0 mm 1 mps 761 mmHg 56%
    05:00 +13°C° 0 mm 1 mps 761 mmHg 57%
    06:00 +15°C° 0 mm 1 mps 761 mmHg 55%
    07:00 +16°C° 0 mm 1 mps 760 mmHg 52%
    08:00 +18°C° 0 mm 1 mps 760 mmHg 49%
    09:00 +20°C° 0 mm 1 mps 760 mmHg 46%
    10:00 +20°C° 0 mm 2 mps 760 mmHg 43%
    11:00 +21°C° 0 mm 2 mps 760 mmHg 40%
    12:00 +23°C° 0 mm 2 mps 760 mmHg 39%
    13:00 +23°C° 0 mm 2 mps 759 mmHg 38%
    14:00 +23°C° 0 mm 2 mps 759 mmHg 38%
    15:00 +21°C° 0 mm 2 mps 759 mmHg 42%
    16:00 +21°C° 0 mm 2 mps 759 mmHg 46%
    17:00 +20°C° 0 mm 2 mps 758 mmHg 50%
    18:00 +20°C° 0 mm 1 mps 759 mmHg 54%
    19:00 +18°C° 0 mm 1 mps 759 mmHg 58%
    20:00 +16°C° 0 mm 1 mps 759 mmHg 61%
    21:00 +16°C° 0 mm 1 mps 759 mmHg 61%
    22:00 +16°C° 0 mm 2 mps 759 mmHg 60%
    23:00 +16°C° 0 mm 2 mps 759 mmHg 60%
    Show more

    3.3.7123123